Find Kosmos-2437

NORAD ID: 32954 Int'l Des: 2008-025 Owner: KVR Country: RU operational
LEOCIRCULARPOLAR

Live Position

Loading 3D Globe...

About Kosmos-2437

Description loading...

Upcoming Passes

Passes for default location (London). Set your location on the main map for personalized predictions.

Altitude History

Loading altitude history...

Two-Line Element Set

1 32954U 08025B 26106.96050509 .00000002 00000-0 -54979-4 0 9998
2 32954 82.5051 35.5227 0021569 101.4207 27.5847 12.42757637811768
Epoch: Apr 16, 2026 • Age: 12 hours

Current Status

Altitude 1539.2 km
Velocity 7.09 km/s
Sub-Earth Point -75.13°S, 12.03°W
Launch Date May 23, 2008
Age 17.9 years
Type other

Technical Details

Classification Payload
Mass 225.00 kg
Dry Mass 225.00 kg
Total Mass 225.00 kg
Length 1.60 m
Diameter 0.80 m
Span 7.00 m
Shape Cyl + Ant
Manufacturer RESH
Bus Type Strela-3
Phase Status In Orbit
Owner/State KVR/RU

Most Searched